NOAA 16 DEB, 42363

Orbit data source: Space-Track

NOAA 16 DEB, 42363 is space debris in SSO originally from a launch on Thu, 21 Sep 2000 UTC launched from the Air Force Western Test Range (AFWTR). Debris objects in space refer to the collection of defunct objects orbiting the Earth. Examples of debris include non-operational satellites, rocket bodies, and fragments generated from explosions, collisions, or faulty payload assembly.

Loading next visibility...
Identifier
42363, 2000-055RF
Orbit
SSO
Country
Flag of USUS
Related business
Manufacturer
Unknown
Mission
Spacecraft
Bus & Motor
Unknown
Mass
Unknown
Launch date (UTC)
2000-09-21 (26 years ago)
Launch vehicle
Unknown
Launch site
Air Force Western Test Range (AFWTR)
Object type
Payload
Rocket body
Debris
Shape & HBR
Unknown shape, 0.1 m
Radar Cross Section
Small (<0.1 m²)

Expand to show TLE details & history
Last TLE update: 3 days ago

TLE from 3 days ago
0 NOAA 16 DEB
1 42363U 00055RF  26260.82546375  .00002247  00000-0  11615-2 0  9995
2 42363  98.8016 261.4575 0062796 123.9343 236.7822 14.14958792541524
Epoch: 2026-09-17T19:48Z
TLE epoch observation values (Epoch: 2026-09-17T19:48:40.067Z)
Latitude
-0.00007°
Longitude
-32.46658°
Altitude
870.4 km
Speed
7.404 km/s
True Right ascension
17h 25m 49s
True Declination
0° 00' 00"
Sunlit
Object was in daylight at epoch
Visualization orbit readout
Latitude
Unknown
Longitude
Unknown
Altitude
Unknown
Speed
Unknown
Apparent Right ascension
Unknown
Apparent Declination
Unknown
Sunlit
N/A
Visualization observer readout
Local Sidereal Time
15:00:59
Azimuth
Unknown
Elevation
Unknown
Doppler factor
Unknown
Orbital elements
Apogee altitude
884.947 km
Perigee altitude
794.297 km
Semi-major axis
7,217.759 km
Eccentricity
0.00628
Inclination
98.8016°
RAAN
261.4575°
Arg. of periapsis
123.9343°
True anomaly
236.18278°
Mean anomaly
236.7822°
Eccentric anomaly
236.48223°
Mean motion
3.53948 °/min
Orbital period
101.71 mins
BSTAR
0.0011615
Loading maneuver chart data...
Computing Atmospheric mass density...

Documentation

Showing up to 5 results
|